DW2047 Weather Reports


Display with metric or nautical units.
time (UTC)temp
F
wind
direction
speed
MPH
gust
MPH
rain 1hr
in
rain 24hr
in
rain mn
in
humidity
%
barometer
mb
20260831121526 77 160 0.0 5.0 0.00 0.00 0.00 89 1015.5
20260831121003 77 160 0.0 3.0 0.00 0.00 0.00 89 1015.5
20260831120544 77 160 1.0 3.0 0.00 0.00 0.00 89 1015.5
20260831120055 77 146 0.0 4.0 0.00 0.00 0.00 88 1015.4
20260831115531 77 146 0.0 4.0 0.00 0.00 0.00 88 1015.4
20260831115008 77 145 0.0 4.0 0.00 0.00 0.00 88 1015.4
20260831114519 77 143 1.0 4.0 0.00 0.00 0.00 88 1015.3
20260831114100 77 134 1.0 4.0 0.00 0.00 0.00 88 1015.3
20260831113538 77 134 0.0 7.0 0.00 0.00 0.00 88 1015.4
20260831113057 78 134 2.0 7.0 0.00 0.00 0.00 87 1015.2
20260831112524 78 148 1.0 7.0 0.00 0.00 0.00 87 1015.2
20260831112002 78 165 2.0 7.0 0.00 0.00 0.00 87 1015.2
20260831111521 78 195 2.0 7.0 0.00 0.00 0.00 87 1015.2
20260831111053 78 136 2.0 9.0 0.00 0.00 0.00 87 1015.1
20260831110530 78 144 3.0 9.0 0.00 0.00 0.00 87 1015.1
20260831110041 78 153 3.0 9.0 0.00 0.00 0.00 87 1015.0
20260831105516 78 144 4.0 9.0 0.00 0.00 0.00 87 1015.0
20260831105058 78 146 2.0 5.0 0.00 0.00 0.00 87 1015.0
20260831104503 78 192 2.0 6.0 0.00 0.00 0.00 87 1015.0
20260831104045 78 202 2.0 6.0 0.00 0.00 0.00 88 1015.1
20260831103522 78 162 2.0 7.0 0.00 0.00 0.00 87 1015.0
20260831103053 78 162 2.0 9.0 0.00 0.00 0.00 87 1015.0
20260831102509 78 136 2.0 8.0 0.00 0.00 0.00 87 1015.0
20260831102050 78 215 3.0 5.0 0.00 0.00 0.00 87 1015.1
20260831101604 78 144 2.0 7.0 0.00 0.00 0.00 87 1015.2
20260831101038 78 144 3.0 8.0 0.00 0.00 0.00 87 1015.2
20260831100515 78 160 3.0 8.0 0.00 0.00 0.00 87 1015.3
20260831100035 78 177 2.0 9.0 0.00 0.00 0.00 86 1015.2
20260831095502 78 130 4.0 9.0 0.00 0.00 0.00 86 1015.1
20260831095043 78 188 1.0 6.0 0.00 0.00 0.00 86 1015.1
20260831094554 78 139 1.0 4.0 0.00 0.00 0.00 86 1015.1
20260831094031 78 153 0.0 5.0 0.00 0.00 0.00 86 1015.0
20260831093507 78 147 2.0 5.0 0.00 0.00 0.00 86 1015.0
20260831093019 78 218 2.0 9.0 0.00 0.00 0.00 85 1015.0
20260831092559 78 197 4.0 9.0 0.00 0.00 0.00 85 1015.0
20260831092035 79 157 3.0 8.0 0.00 0.00 0.00 85 1014.9
20260831091554 79 140 3.0 9.0 0.00 0.00 0.00 84 1015.0
20260831091023 79 153 3.0 9.0 0.00 0.00 0.00 84 1015.0
20260831090604 79 134 3.0 7.0 0.00 0.00 0.00 84 1014.9
20260831090011 79 143 1.0 8.0 0.00 0.00 0.00 83 1015.0
20260831085553 79 144 4.0 8.0 0.00 0.00 0.00 83 1015.1
20260831085028 79 165 3.0 9.0 0.00 0.00 0.00 82 1015.1
20260831084544 79 150 3.0 9.0 0.00 0.00 0.00 81 1015.0
20260831084016 79 265 5.0 9.0 0.00 0.00 0.00 80 1015.1
20260831083602 79 138 3.0 8.0 0.00 0.00 0.00 79 1015.2
20260831083010 80 135 3.0 7.0 0.00 0.00 0.00 79 1015.1
20260831082544 80 172 2.0 5.0 0.00 0.00 0.00 78 1015.1
20260831082021 80 146 3.0 8.0 0.00 0.00 0.00 78 1015.1
20260831081532 80 156 4.0 8.0 0.00 0.00 0.00 78 1015.0
20260831081011 80 184 3.0 5.0 0.00 0.00 0.00 78 1015.0
20260831080547 80 142 2.0 5.0 0.00 0.00 0.00 78 1015.0
20260831080106 80 144 2.0 5.0 0.00 0.00 0.00 77 1015.0
20260831075534 80 138 2.0 6.0 0.00 0.00 0.00 77 1015.0
20260831075010 81 158 2.0 5.0 0.00 0.00 0.00 76 1014.9
20260831074521 81 150 1.0 8.0 0.00 0.00 0.00 76 1015.0
20260831074102 81 169 3.0 8.0 0.00 0.00 0.00 75 1014.9
20260831073539 81 146 2.0 7.0 0.00 0.00 0.00 75 1014.9
20260831073051 81 153 2.0 7.0 0.00 0.00 0.00 75 1014.9
20260831072525 81 147 3.0 7.0 0.00 0.00 0.00 75 1015.0
20260831072002 81 147 2.0 7.0 0.00 0.00 0.00 75 1015.1
20260831071513 81 153 2.0 6.0 0.00 0.00 0.00 75 1015.1
20260831071055 81 159 2.0 5.0 0.00 0.00 0.00 74 1015.0
20260831070533 82 165 2.0 5.0 0.00 0.00 0.00 74 1015.0
20260831070043 82 169 2.0 7.0 0.00 0.00 0.00 74 1015.0
20260831065519 82 157 3.0 5.0 0.00 0.00 0.00 73 1014.9
20260831065101 82 143 2.0 5.0 0.00 0.00 0.00 73 1015.0
20260831064507 82 153 2.0 6.0 0.00 0.00 0.00 73 1015.0
20260831064047 82 151 1.0 7.0 0.00 0.00 0.00 72 1015.1
20260831063524 83 147 3.0 8.0 0.00 0.00 0.00 72 1015.1
20260831063035 83 169 3.0 8.0 0.00 0.00 0.00 71 1015.1
20260831062514 83 159 3.0 7.0 0.00 0.00 0.00 71 1015.2
20260831062057 83 161 3.0 8.0 0.00 0.00 0.00 70 1015.2
20260831061607 83 136 4.0 8.0 0.00 0.00 0.00 70 1015.2
20260831061041 84 141 3.0 8.0 0.00 0.00 0.00 69 1015.2
20260831060517 84 142 4.0 9.0 0.00 0.00 0.00 68 1015.2
20260831060028 84 142 4.0 9.0 0.00 0.00 0.00 68 1015.1
20260831055506 84 152 3.0 8.0 0.00 0.00 0.00 67 1015.0
20260831055047 84 157 4.0 8.0 0.00 0.00 0.00 67 1015.0
20260831054606 84 147 2.0 7.0 0.00 0.00 0.00 67 1015.0
20260831054034 84 157 2.0 8.0 0.00 0.00 0.00 66 1015.0
20260831053511 84 161 3.0 8.0 0.00 0.00 0.00 66 1015.0
20260831053025 84 151 2.0 5.0 0.00 0.00 0.00 65 1015.0
20260831052605 85 144 1.0 4.0 0.00 0.00 0.00 65 1014.9
20260831052039 85 143 1.0 7.0 0.00 0.00 0.00 64 1014.8
20260831051552 85 144 2.0 7.0 0.00 0.00 0.00 64 1014.8
20260831051027 85 148 3.0 8.0 0.00 0.00 0.00 64 1014.8
20260831050504 85 160 4.0 10.0 0.00 0.00 0.00 63 1014.7
20260831050018 85 153 5.0 10.0 0.00 0.00 0.00 63 1014.7
20260831045558 85 146 5.0 10.0 0.00 0.00 0.00 63 1014.7
20260831045036 86 171 4.0 9.0 0.00 0.00 0.00 63 1014.6
20260831044546 86 148 3.0 11.0 0.00 0.00 0.00 62 1014.6
20260831044021 86 164 4.0 11.0 0.00 0.00 0.00 62 1014.6
20260831043603 86 143 6.0 11.0 0.00 0.00 0.00 62 1014.5
20260831043009 86 172 3.0 11.0 0.00 0.00 0.00 62 1014.6
20260831042553 86 220 6.0 11.0 0.00 0.00 0.00 62 1014.6
20260831042027 86 161 4.0 10.0 0.00 0.00 0.00 61 1014.6
20260831041549 86 132 3.0 11.0 0.00 0.00 0.00 61 1014.6
20260831041015 87 146 5.0 14.0 0.00 0.00 0.00 61 1014.5
20260831040556 87 165 4.0 14.0 0.00 0.00 0.00 61 1014.5
20260831040001 87 166 4.0 10.0 0.00 0.00 0.00 60 1014.4
20260831035543 87 132 5.0 10.0 0.00 0.00 0.00 60 1014.4
20260831035019 87 145 5.0 13.0 0.00 0.00 0.00 60 1014.3
20260831034531 87 174 6.0 13.0 0.00 0.00 0.00 60 1014.3
20260831034007 87 150 6.0 17.0 0.00 0.00 0.00 60 1014.2
20260831033546 87 156 6.0 17.0 0.00 0.00 0.00 60 1014.2
20260831033058 87 155 7.0 11.0 0.00 0.00 0.00 60 1014.1
20260831032533 88 140 6.0 12.0 0.00 0.00 0.00 60 1014.0
20260831032009 88 134 6.0 12.0 0.00 0.00 0.00 59 1014.1
20260831031529 88 142 5.0 14.0 0.00 0.00 0.00 59 1014.0
20260831031103 88 188 3.0 14.0 0.00 0.00 0.00 59 1014.0
20260831030542 88 148 4.0 12.0 0.00 0.00 0.00 58 1013.9
20260831030049 88 167 3.0 15.0 0.00 0.00 0.00 58 1013.8
20260831025526 88 138 7.0 15.0 0.00 0.00 0.00 58 1013.7
20260831025003 88 134 6.0 12.0 0.00 0.00 0.00 58 1013.6
20260831024514 88 135 5.0 11.0 0.00 0.00 0.00 56 1013.6
20260831024055 88 140 5.0 10.0 0.00 0.00 0.00 56 1013.6
20260831023531 87 159 5.0 10.0 0.00 0.00 0.00 55 1013.6
20260831023042 87 146 6.0 10.0 0.00 0.00 0.00 54 1013.4
20260831022520 85 103 5.0 10.0 0.00 0.00 0.00 55 1013.3
20260831022059 85 128 0.0 0.0 0.00 0.00 0.00 55 1013.2
20260831021505 86 128 0.0 0.0 0.00 0.00 0.00 54 1013.1
20260831021047 86 128 0.0 0.0 0.00 0.00 0.00 54 1013.0
20260831020523 86 128 0.0 0.0 0.00 0.00 0.00 53 1012.8
20260831020031 87 128 0.0 0.0 0.00 0.00 0.00 53 1012.9
20260831015508 87 128 0.0 0.0 0.00 0.00 0.00 52 1012.9
20260831015049 88 128 0.0 0.0 0.00 0.00 0.00 50 1012.8
20260831014601 88 128 0.0 0.0 0.00 0.00 0.00 50 1012.7
20260831014037 89 128 0.0 0.0 0.00 0.00 0.00 49 1012.6
20260831013514 89 128 0.0 0.0 0.00 0.00 0.00 49 1012.6
20260831013025 90 128 0.0 1.0 0.00 0.00 0.00 48 1012.6
20260831012502 90 128 0.0 1.0 0.00 0.00 0.00 47 1012.5
20260831012042 90 128 0.0 2.0 0.00 0.00 0.00 47 1012.5
20260831011557 91 128 0.0 2.0 0.00 0.00 0.00 46 1012.4
20260831011029 91 128 0.0 3.0 0.00 0.00 0.00 46 1012.4
20260831010506 91 128 0.0 3.0 0.00 0.00 0.00 45 1012.4
20260831010030 92 128 0.0 5.0 0.00 0.00 0.00 45 1012.4
20260831005601 92 128 0.0 5.0 0.00 0.00 0.00 45 1012.4
20260831005036 92 122 1.0 4.0 0.00 0.00 0.00 44 1012.3
20260831004545 93 122 1.0 4.0 0.00 0.00 0.00 43 1012.3
20260831004022 93 122 0.0 4.0 0.00 0.00 0.00 43 1012.3
20260831003604 93 123 1.0 4.0 0.00 0.00 0.00 43 1012.4
20260831003007 94 170 1.0 7.0 0.00 0.00 0.00 43 1012.3
20260831002549 94 139 1.0 5.0 0.00 0.00 0.00 43 1012.2
20260831002026 94 139 2.0 5.0 0.00 0.00 0.00 42 1012.2
20260831001537 94 139 0.0 2.0 0.00 0.00 0.00 42 1012.2
20260831001015 94 139 0.0 3.0 0.00 0.00 0.00 42 1012.3
20260831000556 95 139 0.0 7.0 0.00 0.00 0.00 42 1012.3
20260831000009 95 145 2.0 11.0 0.00 0.00 0.00 42 1012.4
20260830235544 95 142 4.0 11.0 0.00 0.00 0.00 41 1012.4
20260830235023 95 138 2.0 6.0 0.00 0.00 0.00 42 1012.4
20260830234543 95 122 1.0 5.0 0.00 0.00 0.00 42 1012.3
20260830234013 95 174 0.0 3.0 0.00 0.00 0.00 42 1012.4
20260830233551 96 174 1.0 8.0 0.00 0.00 0.00 41 1012.3
20260830233103 96 155 4.0 8.0 0.00 0.00 0.00 40 1012.3
20260830232540 96 140 3.0 9.0 0.00 0.00 0.00 40 1012.4
20260830232019 96 120 1.0 9.0 0.00 0.00 0.00 40 1012.4
20260830231529 96 146 5.0 9.0 0.00 0.00 0.00 40 1012.3
20260830231010 97 76 1.0 9.0 0.00 0.00 0.00 40 1012.3
20260830230546 97 140 2.0 8.0 0.00 0.00 0.00 39 1012.4
20260830225534 98 70 2.0 11.0 0.00 0.00 0.00 40 1012.3
20260830225011 97 133 4.0 11.0 0.00 0.00 0.00 40 1012.3
20260830224523 97 169 5.0 10.0 0.00 0.00 0.00 40 1012.3
20260830224001 97 130 2.0 10.0 0.00 0.00 0.00 41 1012.4
20260830223543 97 127 4.0 12.0 0.00 0.00 0.00 41 1012.4
20260830223007 97 173 5.0 12.0 0.00 0.00 0.00 40 1012.4
20260830222549 97 158 2.0 10.0 0.00 0.00 0.00 40 1012.4
20260830222028 97 151 4.0 10.0 0.00 0.00 0.00 39 1012.5
20260830221544 97 129 4.0 10.0 0.00 0.00 0.00 41 1012.6
20260830221018 97 209 4.0 10.0 0.00 0.00 0.00 40 1012.6
20260830220601 98 145 4.0 10.0 0.00 0.00 0.00 39 1012.6
20260830220010 98 128 3.0 13.0 0.00 0.00 0.00 40 1012.6
20260830215553 98 140 5.0 13.0 0.00 0.00 0.00 40 1012.6
20260830215033 98 138 4.0 11.0 0.00 0.00 0.00 41 1012.7
20260830214545 98 142 3.0 12.0 0.00 0.00 0.00 40 1012.6
20260830214023 98 155 5.0 12.0 0.00 0.00 0.00 39 1012.7
20260830213604 98 138 1.0 13.0 0.00 0.00 0.00 42 1012.8
20260830213019 98 123 5.0 10.0 0.00 0.00 0.00 40 1012.9
20260830212555 98 136 2.0 8.0 0.00 0.00 0.00 39 1013.0
20260830212033 98 144 3.0 11.0 0.00 0.00 0.00 39 1013.0
20260830211547 98 187 4.0 11.0 0.00 0.00 0.00 39 1013.2
20260830211024 98 78 0.0 8.0 0.00 0.00 0.00 41 1013.2
20260830210502 98 76 3.0 10.0 0.00 0.00 0.00 41 1013.3
20260830210016 98 88 3.0 12.0 0.00 0.00 0.00 42 1013.3
20260830205559 97 205 1.0 12.0 0.00 0.00 0.00 41 1013.3
20260830205036 97 130 3.0 10.0 0.00 0.00 0.00 42 1013.5
20260830204550 97 129 4.0 11.0 0.00 0.00 0.00 43 1013.6
20260830204028 96 148 6.0 11.0 0.00 0.00 0.00 46 1013.6
20260830203507 96 134 4.0 10.0 0.00 0.00 0.00 44 1013.7
20260830203020 96 150 4.0 12.0 0.00 0.00 0.00 44 1013.7
20260830202604 96 146 8.0 12.0 0.00 0.00 0.00 43 1013.8
20260830202041 96 129 4.0 11.0 0.00 0.00 0.00 44 1014.0
20260830201610 97 159 7.0 11.0 0.00 0.00 0.00 41 1014.1
20260830201033 97 130 3.0 8.0 0.00 0.00 0.00 42 1014.0
20260830200512 96 188 3.0 13.0 0.00 0.00 0.00 43 1014.1
20260830200047 96 140 2.0 12.0 0.00 0.00 0.00 43 1014.2
20260830195504 96 174 5.0 12.0 0.00 0.00 0.00 42 1014.3
20260830195048 96 130 3.0 10.0 0.00 0.00 0.00 44 1014.3
20260830194611 96 206 2.0 11.0 0.00 0.00 0.00 45 1014.4
20260830194038 95 131 5.0 11.0 0.00 0.00 0.00 45 1014.5
20260830193513 95 218 2.0 12.0 0.00 0.00 0.00 46 1014.5
20260830193029 95 138 4.0 12.0 0.00 0.00 0.00 47 1014.6
20260830192503 95 130 4.0 9.0 0.00 0.00 0.00 46 1014.7
20260830192046 95 132 4.0 9.0 0.00 0.00 0.00 46 1014.8
20260830191604 95 140 3.0 11.0 0.00 0.00 0.00 46 1014.9
20260830191035 95 143 5.0 12.0 0.00 0.00 0.00 47 1014.9
20260830190511 94 144 3.0 12.0 0.00 0.00 0.00 49 1015.0
20260830190024 94 245 3.0 9.0 0.00 0.00 0.00 49 1015.0
20260830185501 94 190 2.0 9.0 0.00 0.00 0.00 49 1015.1
20260830185042 94 123 1.0 9.0 0.00 0.00 0.00 50 1015.2
20260830184555 93 136 2.0 12.0 0.00 0.00 0.00 52 1015.2
20260830184031 93 190 5.0 15.0 0.00 0.00 0.00 51 1015.3
20260830183509 93 124 4.0 12.0 0.00 0.00 0.00 51 1015.3
20260830183021 93 140 4.0 12.0 0.00 0.00 0.00 51 1015.4
20260830182604 93 126 5.0 10.0 0.00 0.00 0.00 51 1015.5
20260830182040 92 150 3.0 10.0 0.00 0.00 0.00 52 1015.5
20260830181556 92 161 3.0 10.0 0.00 0.00 0.00 53 1015.6
20260830181029 92 134 3.0 10.0 0.00 0.00 0.00 53 1015.8
20260830180506 92 226 4.0 14.0 0.00 0.00 0.00 54 1015.9
20260830180021 92 134 7.0 14.0 0.00 0.00 0.00 54 1016.1
20260830175601 91 143 2.0 11.0 0.00 0.00 0.00 56 1016.1
20260830175038 91 136 5.0 11.0 0.00 0.00 0.00 55 1016.3
20260830174559 91 136 4.0 11.0 0.00 0.00 0.00 56 1016.4
20260830174028 91 166 5.0 17.0 0.00 0.00 0.00 56 1016.5
20260830173508 91 130 4.0 11.0 0.00 0.00 0.00 56 1016.5
20260830173019 91 136 5.0 11.0 0.00 0.00 0.00 54 1016.6
20260830172601 91 153 2.0 9.0 0.00 0.00 0.00 56 1016.6
20260830172039 91 178 5.0 10.0 0.00 0.00 0.00 56 1016.8
20260830171552 91 138 4.0 9.0 0.00 0.00 0.00 57 1016.7
20260830171030 90 94 1.0 10.0 0.00 0.00 0.00 57 1016.9
20260830170506 90 138 1.0 8.0 0.00 0.00 0.00 57 1017.0
20260830170027 90 144 3.0 9.0 0.00 0.00 0.00 60 1017.0
20260830165601 89 124 3.0 12.0 0.00 0.00 0.00 58 1017.0
20260830165038 89 182 6.0 12.0 0.00 0.00 0.00 60 1017.0
20260830164600 88 123 3.0 8.0 0.00 0.00 0.00 62 1017.1
20260830164029 88 152 3.0 10.0 0.00 0.00 0.00 62 1017.1
20260830163505 88 126 5.0 10.0 0.00 0.00 0.00 61 1017.2
20260830163019 88 138 2.0 9.0 0.00 0.00 0.00 62 1017.2
20260830162601 88 171 2.0 10.0 0.00 0.00 0.00 62 1017.2
20260830162037 88 156 4.0 10.0 0.00 0.00 0.00 61 1017.2
20260830161551 87 209 0.0 9.0 0.00 0.00 0.00 63 1017.2
20260830161027 87 139 5.0 9.0 0.00 0.00 0.00 63 1017.3
20260830160504 86 136 2.0 8.0 0.00 0.00 0.00 65 1017.2
20260830160018 86 234 1.0 10.0 0.00 0.00 0.00 65 1017.1
20260830155558 86 148 3.0 10.0 0.00 0.00 0.00 65 1017.1
20260830155034 86 150 6.0 11.0 0.00 0.00 0.00 65 1017.1
20260830154550 86 146 6.0 11.0 0.00 0.00 0.00 66 1017.1
20260830154025 85 164 6.0 10.0 0.00 0.00 0.00 66 1017.1
20260830153501 85 132 4.0 9.0 0.00 0.00 0.00 68 1017.0
20260830153017 85 132 2.0 9.0 0.00 0.00 0.00 68 1017.0
20260830152555 84 159 2.0 9.0 0.00 0.00 0.00 70 1017.0
20260830152032 84 146 2.0 8.0 0.00 0.00 0.00 70 1017.0
20260830151550 84 150 3.0 7.0 0.00 0.00 0.00 71 1017.0
20260830151022 84 161 1.0 7.0 0.00 0.00 0.00 72 1016.9
20260830150600 83 193 2.0 7.0 0.00 0.00 0.00 74 1016.9
20260830150011 83 196 3.0 11.0 0.00 0.00 0.00 73 1016.9
20260830145551 83 157 3.0 11.0 0.00 0.00 0.00 75 1016.9
20260830145028 83 144 3.0 10.0 0.00 0.00 0.00 75 1016.9
20260830144545 82 152 3.0 9.0 0.00 0.00 0.00 76 1017.0
20260830144019 82 259 1.0 8.0 0.00 0.00 0.00 78 1016.9
20260830143601 82 220 3.0 10.0 0.00 0.00 0.00 78 1016.9
20260830143012 81 172 2.0 10.0 0.00 0.00 0.00 79 1017.0
20260830142553 81 148 2.0 8.0 0.00 0.00 0.00 80 1017.0
20260830142029 80 173 4.0 8.0 0.00 0.00 0.00 80 1017.0
20260830141544 80 200 3.0 8.0 0.00 0.00 0.00 81 1016.9
20260830141022 80 171 4.0 8.0 0.00 0.00 0.00 82 1016.9
20260830140604 80 142 4.0 9.0 0.00 0.00 0.00 82 1016.9
20260830140017 79 151 2.0 9.0 0.00 0.00 0.00 83 1016.8
20260830135555 79 153 3.0 8.0 0.00 0.00 0.00 84 1016.8
20260830135032 78 211 1.0 8.0 0.00 0.00 0.00 85 1016.8
20260830134547 78 151 3.0 7.0 0.00 0.00 0.00 86 1016.8
20260830134025 77 152 2.0 4.0 0.00 0.00 0.00 87 1016.7
20260830133502 77 204 1.0 4.0 0.00 0.00 0.00 87 1016.7
20260830133020 77 229 0.0 4.0 0.00 0.00 0.00 88 1016.7
20260830132554 76 194 0.0 4.0 0.00 0.00 0.00 88 1016.7
20260830132030 76 194 0.0 2.0 0.00 0.00 0.00 88 1016.5
20260830131546 76 150 0.0 3.0 0.00 0.00 0.00 89 1016.5
20260830131022 75 150 0.0 3.0 0.00 0.00 0.00 89 1016.4
20260830130603 75 186 0.0 0.0 0.00 0.00 0.00 89 1016.5
20260830130014 75 186 0.0 0.0 0.00 0.00 0.00 89 1016.5
20260830125557 75 186 0.0 0.0 0.00 0.00 0.00 89 1016.4
20260830125031 74 186 0.0 0.0 0.00 0.00 0.00 89 1016.4
20260830124543 74 186 0.0 0.0 0.00 0.00 0.00 89 1016.4
20260830124020 74 186 0.0 0.0 0.00 0.00 0.00 89 1016.3
20260830123601 74 186 0.0 0.0 0.00 0.00 0.00 89 1016.3
20260830123013 74 186 0.0 0.0 0.00 0.00 0.00 89 1016.2
20260830122554 74 186 0.0 0.0 0.00 0.00 0.00 88 1016.2
20260830122032 74 186 0.0 0.0 0.00 0.00 0.00 88 1016.1